Regional Weather Roundup
Issued by NWS

Home | Current Version | Previous Version | Text Only | Print | Product List | Glossary Off
Versions: 1 2 3 4 5 6 7 8 9 10 11 12 13 14 15 16 17 18 19 20 21 22 23 24 25 26 27 28 29 30 31 32 33 34 35 36 37 38 39 40 41 42 43 44 45 46 47 48 49 50

000
ASUS43 KLSX 161859
RWRMO

WEATHER SUMMARY FOR MISSOURI
NATIONAL WEATHER SERVICE SPRINGFIELD MO
200 PM CDT TUE SEP 16 2014

NOTE: "FAIR" INDICATES FEW OR NO CLOUDS BELOW 12,000 FEET WITH NO
       SIGNIFICANT WEATHER AND/OR OBSTRUCTIONS TO VISIBILITY.
       CURRENT SKY AND/OR WEATHER CONDITIONS ARE NOT AVAILABLE FOR
       CHILLICOTHE AND FARMINGTON.

MOZ001>031-035>038-043-044-053-054-162000-
...NORTHERN AND WESTERN MISSOURI...

CITY           SKY/WX    TMP DP  RH WIND       PRES   REMARKS
KANSAS CTY INT MOSUNNY   66  51  58 MISG      30.16F
KANSAS C DTWN  SUNNY     69  51  52 VRB5      30.15F
LEE`S SUMMIT   SUNNY     68  51  54 VRB3      30.16F
ST JOSEPH      SUNNY     66  50  56 SE5       30.16F
KIRKSVILLE     SUNNY     65  48  54 SE7       30.18F

$$
MOZ066>068-077>081-088>096-101>105-162000-
...SOUTHWEST MISSOURI...

CITY           SKY/WX    TMP DP  RH WIND       PRES   REMARKS
SPRINGFIELD    CLOUDY    71  58  63 E3        30.14F
JOPLIN         CLOUDY    70  62  76 VRB6      30.14F

$$
MOZ032>034-039>042-045>050-055>058-069>072-162000-
...CENTRAL MISSOURI...

CITY           SKY/WX    TMP DP  RH WIND       PRES   REMARKS
COLUMBIA       SUNNY     68  53  58 VRB6      30.16F
JEFFERSON CITY CLOUDY    70  54  56 VRB6      30.16F
ROLLA          CLOUDY    61  55  81 CALM      30.17F
SEDALIA        PTSUNNY   69  56  62 VRB3      30.16F
OSAGE BEACH    CLOUDY    64  55  72 E3        30.17F

$$
MOZ051-052-059>065-162000-
...EAST CENTRAL MISSOURI...

CITY           SKY/WX    TMP DP  RH WIND       PRES   REMARKS
ST LOUIS INTL  CLOUDY    65  54  67 NE5       30.18F
SPIRIT OF STL  CLOUDY    64  54  69 N6        30.17F
ST CHARLES     CLOUDY    62  53  72 NE6       30.18F

$$
MOZ072>076-082>087-097>100-106>115-162000-
...SOUTH CENTRAL AND SOUTHEAST MISSOURI...

CITY           SKY/WX    TMP DP  RH WIND       PRES   REMARKS
CAPE GIRARDEAU PTSUNNY   69  54  58 N8        30.16F
FARMINGTON     PTSUNNY   68  54  60 N7        30.18S
POPLAR BLUFF   CLOUDY    68  54  60 VRB5      30.14F
WEST PLAINS    CLOUDY    67  57  70 E6        30.17F

$$



USA.gov is the U.S. government's official web portal to all federal, state and local government web resources and services.